Погода в Карши

Узбекистан     38°50′29″N   65°47′24″E
темп.,
°C
ветер,
м/с
пор.,
м/с
влажн.,
%
обл.,
%
осадки,
мм/ч
давл.,
гПа
погр.,
м
3 марта, ср
ср323:00+12ссв124099 0.0 102324
02:00+11зсз234098 0.0 102228
05:00+8юв115584 0.0 102223
08:00+9в116752 0.0 102322
11:00+14зюз114628 0.0 1022664
14:00+16зюз33276 0.0 10201633
17:00+16з322615 0.0 10191512
20:00+12с34380 0.0 101972
4 марта, чт
чт423:00+10всв23430 0.0 101932
02:00+10всв23460 0.0 101826
05:00+10в34572 0.0 101732
08:00+10всв356492 0.8 1017139
11:00+16в344093 1.3 1017471
14:00+21юз583016 0.1 10161977
17:00+21зюз782919 0.1 10162799
20:00+13ссз914515 0.4 1021682
5 марта, пт
пт523:00+10с376216 0.6 1025583
02:00+8с4475100 0.8 1028429
05:00+7с347697 0.8 1028195
08:00+6ссв34777 0.0 1028185
11:00+10ссв22594 0.0 1026622
14:00+14ссв22410 0.0 1022898
17:00+16ссв33370 0.0 1019750
20:00+13св354943 0.0 1018128
6 марта, сб
сб623:00+12св475154 0.0 1015155
02:00+12всв4549100 0.0 101295
05:00+12ссз2346100 0.0 100940
08:00+10с101555100 0.6 1008328
11:00+11всв71172100 5.1 1010322
14:00+14ююз71356100 0.0 10101313
17:00+11юз121663100 0.1 10131264
20:00+6ююз10137996 0.1 1017747
7 марта, вс
вс723:00+6юз7108798 1.4 1020625
02:00+6юз5788100 1.3 1020477
05:00+5юз4687100 1.6 1021475
08:00+5юз3585100 0.1 1021465
11:00+7ююз5666100 0.1 1021854
14:00+11ююз564876 0.0 10191269
17:00+12ю464340 0.0 10161225
20:00+8з11580 0.0 101722